B1111 ZUGH-ZUGH

Flight info

Callsign B1111
Flight time 0h 1m
Altitude FL030
Route LOCAL
Aircraft C172/L-SDE2E3FGILRWXY/LB1D1

Departure

Time 2026-05-08 08:38
Airport Guanghan Airport (ZUGH)

Arrival

Time 2026-05-08 08:39
Airport Guanghan Airport (ZUGH)
Time Latitude Longitude Altitude Speed Heading
2026-05-08 08:28 30.94702 104.32723 1543 ft 0 kts 36°
2026-05-08 08:33 30.94719 104.32736 1541 ft 10 kts 30°
2026-05-08 08:33 30.94808 104.32687 1539 ft 25 kts 307°
2026-05-08 08:33 30.94937 104.32479 1539 ft 38 kts 306°
2026-05-08 08:33 30.95039 104.32331 1542 ft 1 kts 308°
2026-05-08 08:34 30.95043 104.32324 1540 ft 5 kts 310°
2026-05-08 08:34 30.95068 104.32272 1539 ft 8 kts 297°
2026-05-08 08:34 30.95097 104.32212 1540 ft 8 kts 309°
2026-05-08 08:34 30.95138 104.32158 1539 ft 10 kts 306°
2026-05-08 08:35 30.95261 104.32040 1542 ft 14 kts 349°
2026-05-08 08:35 30.95273 104.32036 1542 ft 0 kts 346°
2026-05-08 08:35 30.95319 104.32030 1543 ft 11 kts
2026-05-08 08:36 30.95387 104.32071 1546 ft 13 kts 71°
2026-05-08 08:36 30.95308 104.32246 1549 ft 46 kts 127°
2026-05-08 08:36 30.95046 104.32674 1548 ft 80 kts 123°
2026-05-08 08:36 30.94696 104.33231 1677 ft 86 kts 120°
2026-05-08 08:37 30.94336 104.33822 1818 ft 90 kts 128°
2026-05-08 08:37 30.93908 104.34393 2060 ft 94 kts 126°
2026-05-08 08:37 30.93437 104.34969 1981 ft 103 kts 129°
2026-05-08 08:37 30.93048 104.35579 2109 ft 92 kts 92°
2026-05-08 08:38 30.93496 104.36106 2145 ft 108 kts 20°
2026-05-08 08:38 30.94213 104.35951 2314 ft 115 kts 314°
2026-05-08 08:38 30.94347 104.35111 2165 ft 96 kts 256°
2026-05-08 08:38 30.94209 104.34390 1820 ft 92 kts 269°
2026-05-08 08:39 30.94371 104.33731 1576 ft 76 kts 307°
2026-05-08 08:39 30.94602 104.33335 1541 ft 39 kts 306°
2026-05-08 08:39 30.94697 104.33198 1543 ft 0 kts 309°
2026-05-08 08:41 30.94729 104.33147 1544 ft 28 kts 306°
2026-05-08 08:41 30.94942 104.32819 1544 ft 71 kts 312°
2026-05-08 08:41 30.95264 104.32266 1584 ft 92 kts 308°
2026-05-08 08:41 30.95696 104.32249 1703 ft 80 kts 105°
2026-05-08 08:42 30.95455 104.32890 1846 ft 89 kts 120°
2026-05-08 08:42 30.95070 104.33509 1967 ft 97 kts 128°
2026-05-08 08:42 30.94622 104.34131 2080 ft 105 kts 126°
2026-05-08 08:42 30.94131 104.34766 2280 ft 109 kts 130°
2026-05-08 08:43 30.93635 104.35451 2365 ft 108 kts 125°
2026-05-08 08:43 30.93114 104.36089 2241 ft 120 kts 128°
2026-05-08 08:43 30.92537 104.36859 2159 ft 123 kts 127°
2026-05-08 08:43 30.91996 104.37618 2272 ft 121 kts 128°
2026-05-08 08:44 30.91415 104.38285 2416 ft 117 kts 137°
2026-05-08 08:44 30.90796 104.38933 2413 ft 120 kts 128°
2026-05-08 08:44 30.90245 104.39671 2399 ft 128 kts 136°
2026-05-08 08:44 30.89612 104.40397 2352 ft 126 kts 127°
2026-05-08 08:45 30.89044 104.41123 2334 ft 118 kts 129°
2026-05-08 08:45 30.88496 104.41825 2301 ft 116 kts 128°
2026-05-08 08:45 30.87978 104.42513 2211 ft 113 kts 130°
2026-05-08 08:45 30.87424 104.43195 1944 ft 126 kts 128°
2026-05-08 08:46 30.87020 104.44040 1771 ft 118 kts 103°
2026-05-08 08:46 30.86558 104.44740 1757 ft 114 kts 147°
2026-05-08 08:46 30.85849 104.45158 1699 ft 106 kts 117°
2026-05-08 08:46 30.86344 104.45506 1769 ft 94 kts 39°
2026-05-08 08:47 30.86041 104.45859 1716 ft 115 kts 159°
2026-05-08 08:47 30.85359 104.45942 1718 ft 109 kts 239°
2026-05-08 08:47 30.85632 104.45729 1702 ft 80 kts 142°
2026-05-08 08:47 30.84961 104.45695 1655 ft 108 kts 200°
2026-05-08 08:48 30.84358 104.45265 1866 ft 95 kts 227°
2026-05-08 08:48 30.84654 104.45058 1722 ft 96 kts 35°
2026-05-08 08:48 30.85327 104.45422 1692 ft 116 kts 24°
2026-05-08 08:48 30.86100 104.45504 1651 ft 104 kts 18°
2026-05-08 08:49 30.86426 104.45977 2056 ft 59 kts 114°
2026-05-08 08:49 30.86274 104.46116 1562 ft 0 kts 101°
2026-05-08 08:50 30.85869 104.46461 1923 ft 96 kts 210°
2026-05-08 08:50 30.85223 104.46060 1717 ft 104 kts 214°
2026-05-08 08:50 30.84779 104.45397 1581 ft 108 kts 274°
2026-05-08 08:51 30.85106 104.44943 1566 ft 68 kts 12°
2026-05-08 08:51 30.85428 104.44986 1522 ft 0 kts 358°
2026-05-08 08:51 30.85525 104.44925 1498 ft 0 kts 187°
2026-05-08 08:51 30.85026 104.44907 1682 ft 117 kts 160°
2026-05-08 08:52 30.84456 104.45523 1741 ft 109 kts 150°
2026-05-08 08:52 30.83853 104.45979 1848 ft 103 kts 120°
2026-05-08 08:52 30.83891 104.46639 2201 ft 88 kts 65°
2026-05-08 08:52 30.84644 104.46599 1929 ft 132 kts 356°
2026-05-08 08:53 30.85456 104.46464 2029 ft 113 kts 20°
2026-05-08 08:53 30.85718 104.46499 1614 ft 0 kts 100°
2026-05-08 08:53 30.85404 104.46772 2073 ft 94 kts 230°
2026-05-08 08:53 30.85530 104.45995 1582 ft 105 kts 325°
2026-05-08 08:54 30.85987 104.45836 1653 ft 51 kts 108°
2026-05-08 08:54 30.86035 104.46160 1587 ft 0 kts 357°
2026-05-08 08:54 30.86237 104.46075 2222 ft 88 kts 344°
2026-05-08 08:54 30.86746 104.45647 1980 ft 96 kts 308°
2026-05-08 08:55 30.87161 104.45309 1832 ft 65 kts 52°
2026-05-08 08:55 30.86950 104.45649 1552 ft 65 kts 99°
2026-05-08 08:55 30.87124 104.45850 1558 ft 0 kts 297°
2026-05-08 08:55 30.87124 104.45851 1557 ft 0 kts 295°
2026-05-08 08:56 30.87228 104.45373 1816 ft 104 kts 278°
2026-05-08 08:56 30.87427 104.44547 1635 ft 102 kts 273°
2026-05-08 08:56 30.87017 104.44233 1541 ft 80 kts 133°
2026-05-08 08:56 30.86907 104.44569 1496 ft 0 kts 250°
2026-05-08 08:57 30.86743 104.44164 1593 ft 96 kts 265°
2026-05-08 08:57 30.86977 104.43988 1626 ft 56 kts 94°
2026-05-08 08:57 30.86968 104.44420 1479 ft 34 kts 114°
2026-05-08 08:57 30.86934 104.44507 2295 ft 0 kts 111°
2026-05-08 08:58 30.86858 104.44736 2791 ft 0 kts 107°
2026-05-08 08:58 30.86674 104.45125 5626 ft 92 kts 128°
2026-05-08 08:58 30.86303 104.45633 5302 ft 54 kts 146°
2026-05-08 08:59 30.86031 104.45825 3299 ft 105 kts 154°
2026-05-08 08:59 30.85162 104.45716 2087 ft 115 kts 187°
2026-05-08 08:59 30.84495 104.45382 1734 ft 89 kts 189°
2026-05-08 08:59 30.84106 104.45840 1624 ft 104 kts 85°
2026-05-08 09:00 30.84730 104.46221 1703 ft 115 kts
2026-05-08 09:00 30.85529 104.46206 1925 ft 116 kts
2026-05-08 09:00 30.86304 104.46060 2189 ft 118 kts 347°
2026-05-08 09:00 30.87083 104.46050 1999 ft 112 kts 66°
2026-05-08 09:01 30.86513 104.46166 1711 ft 147 kts 225°
2026-05-08 09:01 30.85650 104.45684 1631 ft 130 kts 181°
2026-05-08 09:01 30.84786 104.45637 1710 ft 116 kts 136°
2026-05-08 09:01 30.85168 104.46165 1905 ft 112 kts 25°
2026-05-08 09:02 30.85933 104.45765 1818 ft 144 kts 296°
2026-05-08 09:02 30.85982 104.45439 1488 ft 0 kts 218°
2026-05-08 09:02 30.86011 104.45466 2483 ft 126 kts 230°
2026-05-08 09:02 30.86064 104.44785 2108 ft 113 kts 11°
2026-05-08 09:03 30.86088 104.45068 2153 ft 86 kts 199°
2026-05-08 09:03 30.85813 104.44298 1826 ft 131 kts 284°
2026-05-08 09:03 30.85794 104.43197 1698 ft 132 kts 281°
2026-05-08 09:04 30.85651 104.42185 1839 ft 95 kts 276°
2026-05-08 09:04 30.85661 104.41506 1750 ft 115 kts 232°
2026-05-08 09:04 30.85300 104.41851 1487 ft 109 kts 96°
2026-05-08 09:04 30.84889 104.42325 1494 ft 89 kts 170°
2026-05-08 09:05 30.84633 104.42504 1471 ft 3 kts 111°
2026-05-08 09:05 30.84667 104.42559 1472 ft 10 kts 54°
2026-05-08 09:05 30.84739 104.42619 1467 ft 0 kts 160°
2026-05-08 09:05 30.84566 104.42723 1522 ft 112 kts 121°
2026-05-08 09:06 30.84641 104.42862 1582 ft 0 kts 152°
2026-05-08 09:06 30.84931 104.42807 1472 ft 0 kts 152°
2026-05-08 09:06 30.84927 104.42804 1470 ft 0 kts 98°
2026-05-08 09:06 30.84972 104.42826 1470 ft 9 kts 20°
2026-05-08 09:07 30.85033 104.42849 1469 ft 9 kts 24°
2026-05-08 09:07 30.85083 104.42865 1468 ft 5 kts
2026-05-08 09:07 30.85108 104.42869 1500 ft 4 kts 18°
2026-05-08 09:07 30.85104 104.42867 1467 ft 0 kts 214°
2026-05-08 09:08 30.85105 104.42867 1466 ft 0 kts 214°
2026-05-08 09:09 30.85022 104.42755 1486 ft 4 kts 229°
2026-05-08 09:09 30.85023 104.42759 1554 ft 0 kts 268°
2026-05-08 09:09 30.85028 104.42582 2040 ft 106 kts 291°
2026-05-08 09:10 30.85374 104.42300 1871 ft 78 kts 115°
2026-05-08 09:10 30.85005 104.42849 1691 ft 95 kts 150°
2026-05-08 09:10 30.84665 104.43227 1960 ft 57 kts 184°
2026-05-08 09:10 30.84556 104.42665 1815 ft 85 kts 351°
2026-05-08 09:11 30.85063 104.42698 1801 ft 71 kts 89°
2026-05-08 09:11 30.84988 104.43300 1653 ft 85 kts 123°
2026-05-08 09:11 30.84914 104.43884 1547 ft 72 kts 85°
2026-05-08 09:11 30.85318 104.44031 1499 ft 81 kts 352°
2026-05-08 09:12 30.85680 104.44037 1549 ft 52 kts 81°
2026-05-08 09:12 30.85855 104.44263 1481 ft 2 kts 45°
2026-05-08 09:12 30.85687 104.44467 1988 ft 70 kts 213°
2026-05-08 09:12 30.85057 104.44299 1607 ft 105 kts 182°
2026-05-08 09:13 30.84346 104.44370 1458 ft 104 kts 204°
2026-05-08 09:13 30.84165 104.44372 1469 ft 0 kts 139°
2026-05-08 09:13 30.84164 104.44371 1468 ft 1 kts 140°
2026-05-08 09:13 30.84209 104.44392 1457 ft 25 kts
2026-05-08 09:14 30.84358 104.44344 1457 ft 4 kts 338°
2026-05-08 09:14 30.84459 104.44280 1461 ft 13 kts 334°
2026-05-08 09:14 30.84458 104.44301 1457 ft 6 kts 177°
2026-05-08 09:14 30.84450 104.44299 1457 ft 0 kts 204°
2026-05-08 09:16 30.84443 104.44313 1455 ft 15 kts 66°
2026-05-08 09:16 30.84448 104.44265 1461 ft 18 kts 174°
2026-05-08 09:16 30.84424 104.44268 1475 ft 124 kts
2026-05-08 09:17 30.84703 104.44462 1725 ft 77 kts 178°
2026-05-08 09:17 30.84455 104.44464 1655 ft 100 kts 90°
2026-05-08 09:17 30.85031 104.44322 1656 ft 108 kts 348°
2026-05-08 09:17 30.85737 104.44127 1645 ft 106 kts 357°
2026-05-08 09:18 30.86486 104.43975 1781 ft 109 kts 342°
2026-05-08 09:18 30.87146 104.43327 1575 ft 135 kts 321°
2026-05-08 09:18 30.87874 104.42782 1467 ft 35 kts 22°
2026-05-08 09:18 30.87889 104.42773 1464 ft 0 kts 144°
2026-05-08 09:19 30.87679 104.42902 1641 ft 105 kts 180°
2026-05-08 09:19 30.87906 104.42498 1787 ft 101 kts 336°
2026-05-08 09:19 30.88570 104.42133 1707 ft 111 kts 345°
2026-05-08 09:19 30.89345 104.41974 1587 ft 102 kts 16°
2026-05-08 09:20 30.89693 104.41546 1531 ft 99 kts 272°
2026-05-08 09:20 30.89935 104.40926 1513 ft 80 kts 339°
2026-05-08 09:20 30.90418 104.40761 1538 ft 73 kts
2026-05-08 09:20 30.90901 104.40548 1480 ft 47 kts
2026-05-08 09:21 30.91234 104.40608 1719 ft 100 kts 306°
2026-05-08 09:21 30.91486 104.39840 1554 ft 99 kts 328°
2026-05-08 09:22 30.92168 104.39583 1737 ft 118 kts 349°
2026-05-08 09:23 30.92821 104.38998 1793 ft 128 kts 308°
2026-05-08 09:23 30.93322 104.38244 1884 ft 97 kts 312°
2026-05-08 09:23 30.93648 104.37650 1864 ft 86 kts 309°
2026-05-08 09:23 30.94014 104.37019 1869 ft 99 kts 307°
2026-05-08 09:24 30.94477 104.36535 2054 ft 92 kts 321°
2026-05-08 09:24 30.94968 104.36001 2102 ft 105 kts 317°
2026-05-08 09:24 30.95462 104.35320 2029 ft 114 kts 316°
2026-05-08 09:24 30.95838 104.34561 1986 ft 100 kts 272°
2026-05-08 09:25 30.95886 104.33777 1874 ft 102 kts 301°
2026-05-08 09:25 30.96219 104.33027 1887 ft 105 kts 297°
2026-05-08 09:25 30.96287 104.32315 1843 ft 81 kts 243°
2026-05-08 09:25 30.95833 104.31890 1686 ft 82 kts 187°
2026-05-08 09:26 30.95379 104.32129 1577 ft 68 kts 123°
2026-05-08 09:26 30.95146 104.32486 1544 ft 36 kts 131°
2026-05-08 09:26 30.95121 104.32561 1546 ft 4 kts 294°
2026-05-08 09:26 30.95121 104.32555 1546 ft 0 kts 271°
2026-05-08 09:27 30.95121 104.32551 1540 ft 4 kts 271°
2026-05-08 09:27 30.95122 104.32523 1548 ft 0 kts 274°
2026-05-08 09:28 30.95072 104.32438 1542 ft 32 kts 206°
2026-05-08 09:28 30.94902 104.32464 1542 ft 16 kts 135°
2026-05-08 09:28 30.94851 104.32557 1541 ft 7 kts 119°
2026-05-08 09:28 30.94833 104.32628 1541 ft 9 kts 107°
2026-05-08 09:29 30.94821 104.32618 1537 ft 9 kts 296°
2026-05-08 09:29 30.94820 104.32660 1541 ft 7 kts 167°
2026-05-08 09:29 30.94848 104.32638 1534 ft 22 kts 307°
2026-05-08 09:29 30.94878 104.32593 1541 ft 0 kts 307°
2026-05-08 09:30 30.94870 104.32584 1541 ft 8 kts 134°
2026-05-08 09:30 30.94800 104.32687 1541 ft 27 kts 121°
2026-05-08 09:30 30.94664 104.32811 1539 ft 13 kts 131°
2026-05-08 09:30 30.94659 104.32829 1541 ft 2 kts 92°
2026-05-08 09:31 30.94663 104.32839 1541 ft 3 kts 33°
2026-05-08 09:31 30.94671 104.32844 1542 ft 0 kts 35°
2026-05-08 09:31 30.94673 104.32845 1542 ft 0 kts 34°